Location: Grantham
(50.0698°N, 112.0083°W)
Time: 23:37:55
(UTC+00:00)

ISS - Pass Details

Date: 08 December 2021
Orbit: 413 x 422 km, 51.6° (Epoch: 24 January)

Event Time Altitude Azimuth Distance (km) Brightness Sun altitude
Rises 23:48:34 0° 287° (WNW) 2,388 0.8 -3.8°
Reaches altitude 10° 23:50:42 10° 284° (WNW) 1,519 -0.2 -4.1°
Maximum altitude 23:54:04 59° 204° (SSW) 497 -3.0 -4.6°
Drops below altitude 10° 23:57:24 10° 125° (SE) 1,507 -1.2 -5.0°
Enters shadow 00:02:06 -8° 119° (ESE) 3,435 0.6 -5.7°
